Time,TemperatureF,DewpointF,PressureIn,WindDirection,WindDirectionDegrees,WindSpeedMPH,WindSpeedGustMPH,Humidity,HourlyPrecipIn,Conditions,Clouds,dailyrainin,SoftwareType,DateUTC
2013-08-27 00:09:00,72.1,53.0,29.83,ESE,114,2.0,6.0,52,0.00,,,0.00,weatherlink.com 1.10,2013-08-27 06:09:00,
2013-08-27 00:24:00,72.2,55.0,29.83,South,184,1.0,4.0,56,0.00,,,0.00,weatherlink.com 1.10,2013-08-27 06:24:00,
2013-08-27 00:39:00,70.2,55.0,29.83,SSE,165,0.0,1.0,58,0.00,,,0.00,weatherlink.com 1.10,2013-08-27 06:39:00,
2013-08-27 00:54:00,69.5,55.0,29.83,SSE,165,0.0,1.0,61,0.00,,,0.00,weatherlink.com 1.10,2013-08-27 06:54:00,
2013-08-27 01:09:00,68.9,55.0,29.83,SE,131,1.0,2.0,61,0.00,,,0.00,weatherlink.com 1.10,2013-08-27 07:09:00,
2013-08-27 01:24:00,68.8,54.0,29.83,ESE,121,2.0,3.0,59,0.00,,,0.00,weatherlink.com 1.10,2013-08-27 07:24:00,
2013-08-27 01:39:00,68.2,53.0,29.83,ESE,122,1.0,4.0,58,0.00,,,0.00,weatherlink.com 1.10,2013-08-27 07:39:00,
2013-08-27 01:55:00,66.9,53.0,29.83,SSE,155,0.0,1.0,61,0.00,,,0.00,weatherlink.com 1.10,2013-08-27 07:55:00,
2013-08-27 02:09:00,66.2,52.0,29.83,SE,125,0.0,1.0,60,0.00,,,0.00,weatherlink.com 1.10,2013-08-27 08:09:00,
2013-08-27 02:24:00,68.1,52.0,29.84,ESE,119,0.0,2.0,56,0.00,,,0.00,weatherlink.com 1.10,2013-08-27 08:24:00,
2013-08-27 02:39:00,66.7,52.0,29.84,ESE,112,0.0,1.0,60,0.00,,,0.00,weatherlink.com 1.10,2013-08-27 08:39:00,
2013-08-27 02:54:00,65.7,52.0,29.84,ESE,113,0.0,1.0,62,0.00,,,0.00,weatherlink.com 1.10,2013-08-27 08:54:00,
2013-08-27 03:09:00,65.6,52.0,29.84,SE,136,0.0,1.0,61,0.00,,,0.00,weatherlink.com 1.10,2013-08-27 09:09:00,
2013-08-27 03:24:00,65.4,52.0,29.85,SE,131,0.0,2.0,62,0.00,,,0.00,weatherlink.com 1.10,2013-08-27 09:24:00,
2013-08-27 03:39:00,64.8,51.0,29.85,SE,128,0.0,1.0,62,0.00,,,0.00,weatherlink.com 1.10,2013-08-27 09:39:00,
2013-08-27 03:54:00,64.4,51.0,29.85,SE,128,0.0,1.0,63,0.00,,,0.00,weatherlink.com 1.10,2013-08-27 09:54:00,
2013-08-27 04:09:00,64.4,52.0,29.85,SE,134,0.0,1.0,64,0.00,,,0.00,weatherlink.com 1.10,2013-08-27 10:09:00,
2013-08-27 04:24:00,64.2,52.0,29.85,SE,134,0.0,0.0,65,0.00,,,0.00,weatherlink.com 1.10,2013-08-27 10:24:00,
2013-08-27 04:39:00,63.4,51.0,29.85,SE,134,0.0,0.0,65,0.00,,,0.00,weatherlink.com 1.10,2013-08-27 10:39:00,
2013-08-27 04:54:00,62.9,52.0,29.85,SE,134,0.0,0.0,67,0.00,,,0.00,weatherlink.com 1.10,2013-08-27 10:54:00,
2013-08-27 05:09:00,62.6,52.0,29.85,SE,134,0.0,0.0,68,0.00,,,0.00,weatherlink.com 1.10,2013-08-27 11:09:00,
2013-08-27 05:24:00,63.4,53.0,29.85,SSE,160,0.0,1.0,68,0.00,,,0.00,weatherlink.com 1.10,2013-08-27 11:24:00,
2013-08-27 05:39:00,63.7,52.0,29.85,South,174,0.0,1.0,67,0.00,,,0.00,weatherlink.com 1.10,2013-08-27 11:39:00,
2013-08-27 05:54:00,63.5,52.0,29.85,SSE,155,0.0,1.0,67,0.00,,,0.00,weatherlink.com 1.10,2013-08-27 11:54:00,
2013-08-27 06:09:00,62.7,52.0,29.85,SSE,149,0.0,1.0,68,0.00,,,0.00,weatherlink.com 1.10,2013-08-27 12:09:00,
2013-08-27 06:25:00,62.2,52.0,29.86,SE,133,0.0,2.0,69,0.00,,,0.00,weatherlink.com 1.10,2013-08-27 12:25:00,
2013-08-27 06:40:00,62.2,52.0,29.86,ESE,120,0.0,1.0,70,0.00,,,0.00,weatherlink.com 1.10,2013-08-27 12:40:00,
2013-08-27 06:55:00,62.3,52.0,29.86,ESE,118,0.0,2.0,69,0.00,,,0.00,weatherlink.com 1.10,2013-08-27 12:55:00,
2013-08-27 07:10:00,62.7,52.0,29.87,ESE,118,1.0,2.0,69,0.00,,,0.00,weatherlink.com 1.10,2013-08-27 13:10:00,
2013-08-27 07:25:00,64.6,54.0,29.87,ESE,120,0.0,1.0,68,0.00,,,0.00,weatherlink.com 1.10,2013-08-27 13:25:00,
2013-08-27 07:40:00,67.2,54.0,29.87,ESE,121,0.0,1.0,63,0.00,,,0.00,weatherlink.com 1.10,2013-08-27 13:40:00,
2013-08-27 07:55:00,68.5,53.0,29.88,SW,233,3.0,3.0,59,0.00,,,0.00,weatherlink.com 1.10,2013-08-27 13:55:00,
2013-08-27 08:10:00,68.8,54.0,29.87,South,173,0.0,2.0,59,0.00,,,0.00,weatherlink.com 1.10,2013-08-27 14:10:00,
2013-08-27 08:25:00,70.2,54.0,29.88,South,174,1.0,3.0,56,0.00,,,0.00,weatherlink.com 1.10,2013-08-27 14:25:00,
2013-08-27 08:40:00,70.9,54.0,29.88,SW,215,1.0,6.0,56,0.00,,,0.00,weatherlink.com 1.10,2013-08-27 14:40:00,
2013-08-27 08:55:00,71.4,54.0,29.88,South,190,2.0,5.0,54,0.00,,,0.00,weatherlink.com 1.10,2013-08-27 14:55:00,
2013-08-27 09:10:00,72.5,55.0,29.88,SSW,203,3.0,5.0,54,0.00,,,0.00,weatherlink.com 1.10,2013-08-27 15:10:00,
2013-08-27 09:25:00,73.3,54.0,29.88,SSE,163,2.0,5.0,52,0.00,,,0.00,weatherlink.com 1.10,2013-08-27 15:25:00,
2013-08-27 09:40:00,74.9,55.0,29.88,SSE,156,1.0,4.0,50,0.00,,,0.00,weatherlink.com 1.10,2013-08-27 15:40:00,
2013-08-27 09:55:00,76.7,55.0,29.87,SSW,196,1.0,4.0,48,0.00,,,0.00,weatherlink.com 1.10,2013-08-27 15:55:00,
2013-08-27 10:10:00,77.1,54.0,29.87,NNW,339,1.0,6.0,45,0.00,,,0.00,weatherlink.com 1.10,2013-08-27 16:10:00,
2013-08-27 10:25:00,80.1,54.0,29.87,NE,50,3.0,5.0,40,0.00,,,0.00,weatherlink.com 1.10,2013-08-27 16:25:00,
2013-08-27 10:40:00,81.1,55.0,29.86,East,81,2.0,5.0,40,0.00,,,0.00,weatherlink.com 1.10,2013-08-27 16:40:00,
2013-08-27 10:55:00,81.4,55.0,29.86,NE,53,1.0,10.0,40,0.00,,,0.00,weatherlink.com 1.10,2013-08-27 16:55:00,
2013-08-27 11:10:00,80.8,54.0,29.85,East,100,6.0,8.0,39,0.00,,,0.00,weatherlink.com 1.10,2013-08-27 17:10:00,
2013-08-27 11:25:00,82.0,55.0,29.85,East,88,5.0,6.0,39,0.00,,,0.00,weatherlink.com 1.10,2013-08-27 17:25:00,
2013-08-27 11:40:00,82.7,55.0,29.84,ENE,68,2.0,6.0,39,0.00,,,0.00,weatherlink.com 1.10,2013-08-27 17:40:00,
2013-08-27 11:55:00,82.7,53.0,29.84,ESE,115,2.0,9.0,36,0.00,,,0.00,weatherlink.com 1.10,2013-08-27 17:55:00,
2013-08-27 12:10:00,84.1,54.0,29.83,North,354,5.0,10.0,36,0.00,,,0.00,weatherlink.com 1.10,2013-08-27 18:10:00,
2013-08-27 12:25:00,84.2,54.0,29.82,ESE,104,2.0,8.0,35,0.00,,,0.00,weatherlink.com 1.10,2013-08-27 18:25:00,
2013-08-27 12:40:00,85.1,54.0,29.81,ESE,113,0.0,10.0,34,0.00,,,0.00,weatherlink.com 1.10,2013-08-27 18:40:00,
2013-08-27 12:55:00,85.8,54.0,29.80,NW,318,2.0,8.0,33,0.00,,,0.00,weatherlink.com 1.10,2013-08-27 18:55:00,
2013-08-27 13:10:00,86.9,55.0,29.80,SSE,155,1.0,6.0,34,0.00,,,0.00,weatherlink.com 1.10,2013-08-27 19:10:00,
2013-08-27 13:25:00,87.6,54.0,29.79,ENE,73,3.0,6.0,32,0.00,,,0.00,weatherlink.com 1.10,2013-08-27 19:25:00,
2013-08-27 13:40:00,88.1,53.0,29.79,ESE,122,5.0,9.0,30,0.00,,,0.00,weatherlink.com 1.10,2013-08-27 19:40:00,
2013-08-27 13:56:00,88.4,53.0,29.78,South,179,0.0,6.0,30,0.00,,,0.00,weatherlink.com 1.10,2013-08-27 19:56:00,
2013-08-27 14:11:00,89.5,53.0,29.78,SE,145,1.0,8.0,29,0.00,,,0.00,weatherlink.com 1.10,2013-08-27 20:11:00,
2013-08-27 14:26:00,88.9,54.0,29.77,South,188,2.0,10.0,30,0.00,,,0.00,weatherlink.com 1.10,2013-08-27 20:26:00,
2013-08-27 14:41:00,88.8,53.0,29.76,SSW,205,4.0,8.0,29,0.00,,,0.00,weatherlink.com 1.10,2013-08-27 20:41:00,
2013-08-27 14:56:00,87.8,52.0,29.76,SSW,197,3.0,10.0,29,0.00,,,0.00,weatherlink.com 1.10,2013-08-27 20:56:00,
2013-08-27 15:11:00,89.6,52.0,29.75,SSE,162,0.0,5.0,28,0.00,,,0.00,weatherlink.com 1.10,2013-08-27 21:11:00,
2013-08-27 15:26:00,89.6,53.0,29.74,SSE,156,0.0,6.0,29,0.00,,,0.00,weatherlink.com 1.10,2013-08-27 21:26:00,
2013-08-27 15:56:00,90.2,53.0,29.73,WNW,286,1.0,8.0,28,0.00,,,0.00,weatherlink.com 1.10,2013-08-27 21:56:00,
2013-08-27 16:11:00,90.1,53.0,29.72,ENE,62,9.0,9.0,28,0.00,,,0.00,weatherlink.com 1.10,2013-08-27 22:11:00,
2013-08-27 16:26:00,90.3,52.0,29.72,East,84,4.0,9.0,27,0.00,,,0.00,weatherlink.com 1.10,2013-08-27 22:26:00,
2013-08-27 16:41:00,90.1,52.0,29.72,SE,145,1.0,8.0,27,0.00,,,0.00,weatherlink.com 1.10,2013-08-27 22:41:00,
2013-08-27 16:56:00,90.2,52.0,29.71,SE,131,2.0,9.0,27,0.00,,,0.00,weatherlink.com 1.10,2013-08-27 22:56:00,
2013-08-27 17:11:00,89.4,51.0,29.71,East,96,2.0,10.0,27,0.00,,,0.00,weatherlink.com 1.10,2013-08-27 23:11:00,
2013-08-27 17:26:00,89.0,51.0,29.71,East,90,2.0,10.0,27,0.00,,,0.00,weatherlink.com 1.10,2013-08-27 23:26:00,
2013-08-27 17:41:00,89.4,51.0,29.70,SE,131,6.0,9.0,27,0.00,,,0.00,weatherlink.com 1.10,2013-08-27 23:41:00,
2013-08-27 17:56:00,89.5,50.0,29.70,East,90,2.0,8.0,26,0.00,,,0.00,weatherlink.com 1.10,2013-08-27 23:56:00,
2013-08-27 18:11:00,89.0,50.0,29.70,SSE,149,4.0,9.0,26,0.00,,,0.00,weatherlink.com 1.10,2013-08-28 00:11:00,
2013-08-27 18:26:00,89.4,50.0,29.70,SSE,156,3.0,5.0,26,0.00,,,0.00,weatherlink.com 1.10,2013-08-28 00:26:00,
2013-08-27 18:41:00,88.9,50.0,29.70,East,81,3.0,7.0,26,0.00,,,0.00,weatherlink.com 1.10,2013-08-28 00:41:00,
2013-08-27 18:56:00,88.1,49.0,29.69,SSE,153,1.0,7.0,26,0.00,,,0.00,weatherlink.com 1.10,2013-08-28 00:56:00,
2013-08-27 19:11:00,87.3,48.0,29.70,East,99,4.0,6.0,26,0.00,,,0.00,weatherlink.com 1.10,2013-08-28 01:11:00,
2013-08-27 19:26:00,85.9,48.0,29.70,SE,146,4.0,6.0,27,0.00,,,0.00,weatherlink.com 1.10,2013-08-28 01:26:00,
2013-08-27 19:41:00,84.4,48.0,29.70,SE,131,2.0,4.0,28,0.00,,,0.00,weatherlink.com 1.10,2013-08-28 01:41:00,
2013-08-27 19:56:00,83.2,48.0,29.71,ESE,117,1.0,3.0,29,0.00,,,0.00,weatherlink.com 1.10,2013-08-28 01:56:00,
2013-08-27 20:11:00,82.4,48.0,29.71,SE,129,1.0,3.0,30,0.00,,,0.00,weatherlink.com 1.10,2013-08-28 02:11:00,
2013-08-27 20:26:00,81.5,48.0,29.71,ESE,123,1.0,2.0,31,0.00,,,0.00,weatherlink.com 1.10,2013-08-28 02:26:00,
2013-08-27 20:41:00,80.7,50.0,29.73,ESE,111,1.0,3.0,34,0.00,,,0.00,weatherlink.com 1.10,2013-08-28 02:41:00,
2013-08-27 20:56:00,78.6,50.0,29.73,ESE,105,1.0,4.0,37,0.00,,,0.00,weatherlink.com 1.10,2013-08-28 02:56:00,
2013-08-27 21:11:00,78.1,48.0,29.74,SE,127,1.0,4.0,35,0.00,,,0.00,weatherlink.com 1.10,2013-08-28 03:11:00,
2013-08-27 21:26:00,77.7,46.0,29.75,SE,131,1.0,5.0,33,0.00,,,0.00,weatherlink.com 1.10,2013-08-28 03:26:00,
2013-08-27 21:41:00,77.3,46.0,29.75,ESE,117,2.0,4.0,33,0.00,,,0.00,weatherlink.com 1.10,2013-08-28 03:41:00,
2013-08-27 21:56:00,76.9,47.0,29.76,SE,139,1.0,3.0,35,0.00,,,0.00,weatherlink.com 1.10,2013-08-28 03:56:00,
2013-08-27 22:11:00,76.3,47.0,29.76,SE,141,1.0,4.0,36,0.00,,,0.00,weatherlink.com 1.10,2013-08-28 04:11:00,
2013-08-27 22:26:00,76.1,49.0,29.77,SE,127,0.0,4.0,38,0.00,,,0.00,weatherlink.com 1.10,2013-08-28 04:26:00,
2013-08-27 22:41:00,75.8,48.0,29.76,SSE,148,2.0,4.0,38,0.00,,,0.00,weatherlink.com 1.10,2013-08-28 04:41:00,
2013-08-27 22:56:00,75.5,47.0,29.77,SE,142,1.0,4.0,36,0.00,,,0.00,weatherlink.com 1.10,2013-08-28 04:56:00,
2013-08-27 23:11:00,75.1,47.0,29.77,SSE,148,2.0,5.0,37,0.00,,,0.00,weatherlink.com 1.10,2013-08-28 05:11:00,
2013-08-27 23:26:00,75.3,47.0,29.77,SE,138,3.0,6.0,37,0.00,,,0.00,weatherlink.com 1.10,2013-08-28 05:26:00,
2013-08-27 23:41:00,74.9,47.0,29.77,SSE,155,3.0,7.0,37,0.00,,,0.00,weatherlink.com 1.10,2013-08-28 05:41:00,
2013-08-27 23:56:00,73.8,48.0,29.77,SSE,158,4.0,6.0,40,0.00,,,0.00,weatherlink.com 1.10,2013-08-28 05:56:00,